Temp_Advection
nan nan nan nan nan nan nan nan nan nan nan nan nan nan nan nan nan nan nan nan nan nan
nan 0 0 0 0 0 -0 0 0 -0 -0 -0 -0 -0 -0 -0 0 1 0 -0 -1 nan
nan 0 0 0 0 0 0 0 -0 -0 -0 -0 -0 -0 0 0 0 0 -1 -1 -1 nan
nan 1 0 0 0 0 0 0 -0 -0 0 0 0 0 0 -0 -0 -0 -1 -0 -0 nan
nan 0 -0 -0 0 0 0 -0 0 1 1 0 -0 -0 -0 0 -0 -0 -0 -0 -0 nan
nan 0 0 -0 -1 0 0 0 0 0 -0 0 0 1 0 -0 -0 0 -0 -0 -0 nan
nan 0 -0 -0 1 0 -0 -0 -0 -0 0 0 -0 -0 -0 0 0 0 0 -0 0 nan
nan 0 -0 -0 0 0 0 0 0 0 0 -0 -0 0 0 0 -0 -0 -0 -0 0 nan
nan -0 -0 0 -0 -1 -0 0 1 0 0 0 -1 -0 1 1 -0 -1 -1 -0 -0 nan
nan -0 0 0 -0 -0 0 -0 -0 -0 -0 -1 -1 0 1 1 1 0 -0 -1 -0 nan
nan 0 0 -0 -0 0 0 -0 -0 -0 -0 -0 -1 -0 1 1 1 -0 -1 -0 1 nan
nan -0 -0 -0 0 0 -0 -0 0 0 -0 -1 -0 -0 -0 0 0 -0 -0 -0 0 nan
nan -1 -1 -1 -0 -0 -0 -0 -0 -0 0 0 0 -0 0 0 -0 -0 -0 -0 -0 nan
nan nan nan nan nan nan nan nan nan nan nan nan nan nan nan nan nan nan nan nan nan nan
Wind_Speed
30 28 27 25 23 27 31 34 36 36 38 38 39 39 40 40 42 44 40 37 39 40
31 31 31 29 26 27 31 35 38 38 38 38 38 39 38 42 42 45 37 36 44 47
29 31 30 27 29 30 30 34 37 40 41 41 42 42 40 38 37 42 46 45 47 47
26 29 30 30 30 28 31 31 35 37 40 43 46 46 46 43 42 45 45 47 50 49
24 26 30 34 33 32 31 32 33 33 35 40 46 49 50 50 50 50 50 50 51 51
25 27 27 29 32 33 32 33 34 36 38 38 39 44 50 52 52 52 52 51 53 53
24 25 26 25 27 29 33 35 35 37 39 40 41 44 46 51 56 58 58 58 58 58
19 22 24 26 25 27 30 32 33 35 38 42 43 46 47 49 53 56 59 61 63 63
16 18 21 26 30 31 33 35 37 40 41 42 44 45 47 49 49 51 53 56 58 60
10 12 17 22 25 26 29 34 40 43 45 46 47 46 47 48 49 50 52 52 52 53
1 5 8 11 17 25 27 32 36 38 42 47 50 50 49 47 47 49 51 53 53 53
11 8 7 8 12 15 17 21 29 33 42 44 46 45 44 48 49 50 51 51 50 52
14 13 13 13 13 13 15 19 20 24 30 31 43 45 46 46 46 47 48 52 55 52
17 16 15 14 14 15 16 16 14 16 18 28 35 41 46 48 47 48 49 50 54 57
Wind_Direction
207 211 212 215 216 215 209 205 207 209 210 213 217 214 221 222 226 226 225 232 233 236
205 208 211 213 218 223 222 216 214 215 216 219 221 221 226 229 235 224 223 230 229 233
210 211 215 211 214 221 226 227 227 226 226 226 228 228 227 229 232 231 232 235 238 241
218 215 218 222 221 222 227 229 229 231 233 234 231 229 231 231 234 236 238 238 241 245
229 225 222 224 226 228 228 229 232 238 240 239 239 236 238 238 238 240 242 243 246 247
237 237 238 232 233 233 233 232 235 239 242 247 247 245 243 241 240 243 245 246 247 249
243 248 248 255 249 244 240 239 241 240 242 244 245 247 250 249 246 247 249 251 253 254
258 258 259 259 261 260 253 253 254 252 248 247 247 248 247 248 250 252 254 256 258 258
249 255 261 268 262 260 261 260 258 258 259 259 257 256 253 251 251 252 254 256 258 260
199 216 235 245 259 268 267 266 263 262 261 261 262 263 262 260 257 258 260 261 262 263
240 245 248 248 243 245 252 258 268 271 270 267 267 269 268 266 263 262 263 264 264 264
31 11 337 291 271 264 262 259 253 260 268 273 280 282 282 273 267 264 264 265 266 266
10 4 358 349 334 320 297 283 277 274 262 259 256 254 260 261 261 264 265 268 267 267
7 6 0 354 342 330 326 319 310 296 281 266 260 257 258 258 257 256 262 266 261 257
Height
1435 1438 1441 1446 1450 1454 1458 1463 1468 1473 1479 1484 1489 1493 1498 1501 1505 1509 1513 1516 1519 1521
1431 1435 1439 1444 1448 1452 1457 1462 1467 1471 1476 1481 1485 1490 1494 1497 1499 1503 1507 1511 1512 1515
1428 1433 1438 1442 1446 1449 1454 1459 1464 1468 1473 1477 1481 1484 1488 1492 1495 1497 1500 1503 1506 1508
1427 1431 1435 1439 1444 1449 1453 1455 1459 1463 1467 1470 1474 1478 1481 1485 1488 1490 1494 1496 1497 1499
1427 1430 1432 1435 1440 1444 1448 1452 1456 1458 1461 1464 1468 1471 1474 1477 1480 1482 1485 1488 1489 1490
1424 1427 1429 1433 1435 1439 1443 1447 1450 1453 1455 1457 1459 1461 1464 1467 1470 1472 1474 1477 1478 1481
1422 1426 1429 1431 1432 1435 1438 1441 1444 1447 1449 1451 1453 1455 1456 1457 1460 1462 1463 1465 1467 1470
1420 1422 1424 1426 1428 1430 1433 1434 1437 1439 1441 1443 1444 1444 1445 1447 1449 1451 1453 1454 1454 1455
1415 1417 1418 1421 1423 1425 1425 1427 1430 1431 1432 1433 1433 1433 1436 1439 1440 1441 1442 1441 1442 1442
1411 1412 1413 1414 1416 1417 1418 1422 1422 1423 1424 1423 1423 1423 1424 1427 1430 1430 1431 1431 1431 1430
1408 1408 1408 1409 1409 1410 1411 1412 1412 1412 1413 1413 1412 1412 1414 1417 1420 1420 1419 1418 1418 1418
1406 1405 1405 1404 1404 1404 1403 1404 1404 1404 1404 1404 1402 1404 1405 1406 1407 1407 1407 1408 1407 1406
1404 1403 1401 1399 1398 1398 1396 1396 1396 1396 1396 1395 1393 1391 1391 1392 1393 1393 1394 1396 1395 1395
1403 1401 1399 1397 1395 1394 1391 1390 1388 1388 1387 1386 1383 1382 1382 1382 1383 1384 1384 1382 1383 1380